Back to catalog

STARLINK-5400

AliveCommunicationsVLEO
NORAD 54861·PAYLOAD·🇺🇸 United States

Launched Dec 28, 2022 from Cape Canaveral Space Force Station

Loading…

Next Passes (next 24 hours)

TLE

FreshSource: CelesTrak SupGP

Epoch: Sep 14, 2026, 21:51 UTC

1 54861C 22177AT  26257.91090278 -.00037217  00000+0 -13482-2 0  2579
2 54861  43.0022 132.6549 0001417 270.2535  74.0543 15.27592729    17

Track STARLINK-5400 in real time with AllMySat

Download on the App Store